This demonstration page uses our WeatherBlox Daily Observations layout. Learn more.

Left ArrowRight Arrow

34.02893, -84.19858

Hourly Observations for June 23, 2022

Temp ( °F °C ) Dew Point ( °F °C ) Humidity (%) Winds ( mph kmh ) Pressure ( in mb ) Visibility ( mi km ) Precip ( " mm )
12:53 am 00:53 Clear 82 27.8 67 19.4 60 60 NW 5 7 29.89 1012 10 16 0.00 0.00
1:53 am 01:53 Clear 77 25 66 18.9 69 69 Calm 29.87 1012 10 16 0.00 0.00
2:53 am 02:53 Clear 76 24.4 66 18.9 72 72 NW 3 6 29.86 1011 10 16 0.00 0.00
3:53 am 03:53 Clear 75 23.9 66 18.9 74 74 WNW 3 6 29.85 1011 10 16 0.00 0.00
4:53 am 04:53 Clear 78 25.6 66 18.9 67 67 NW 5 7 29.85 1011 10 16 0.00 0.00
5:53 am 05:53 Clear 77 25 67 19.4 71 71 NW 3 6 29.85 1011 10 16 0.00 0.00
6:53 am 06:53 Sunny 77 25 67 19.4 71 71 NW 5 7 29.84 1011 10 16 0.00 0.00
7:53 am 07:53 Sunny 80 26.7 68 20 67 67 NW 6 9 29.85 1011 10 16 0.00 0.00
8:53 am 08:53 Sunny 83 28.3 68 20 61 61 NNW 9 15 29.85 1011 10 16 0.00 0.00
9:53 am 09:53 Sunny 86 30 68 20 55 55 NNW 9 15 29.86 1011 10 16 0.00 0.00
10:53 am 10:53 Sunny 90 32.2 68 20 48 48 NNW 8 13 29.85 1011 10 16 0.00 0.00
11:53 am 11:53 Sunny 93 33.9 69 20.6 46 46 VRB 6 9 29.85 1011 10 16 0.00 0.00
12:53 pm 12:53 Sunny 95 35 67 19.4 40 40 NNW 10 17 29.84 1010 10 16 0.00 0.00
1:53 pm 13:53 Sunny 97 36.1 68 20 39 39 WNW 8 13 29.82 1010 10 16 0.00 0.00
2:53 pm 14:53 Partly Cloudy 95 35 64 17.8 36 36 NNW 12 19 29.80 1009 10 16 0.00 0.00
3:53 pm 15:53 Sunny 98 36.7 61 16.1 29 29 NW 13 20 29.79 1009 10 16 0.00 0.00
4:53 pm 16:53 Sunny 97 36.1 60 15.6 29 29 NW 10 17 29.78 1009 10 16 0.00 0.00
5:53 pm 17:53 Mostly Sunny 95 35 62 16.7 34 34 NW 12 19 29.78 1008 10 16 0.00 0.00
6:53 pm 18:53 Mostly Sunny 90 32.2 68 20 48 48 W 9 15 29.78 1009 10 16 0.00 0.00
7:53 pm 19:53 Mostly Sunny 89 31.7 68 20 50 50 W 9 15 29.80 1009 10 16 0.00 0.00
8:53 pm 20:53 Mostly Clear 86 30 69 20.6 57 57 W 7 11 29.81 1010 10 16 0.00 0.00
9:53 pm 21:53 Clear 84 28.9 66 18.9 55 55 N 5 7 29.83 1010 10 16 0.00 0.00
10:53 pm 22:53 Clear 83 28.3 64 17.8 53 53 NNW 6 9 29.83 1010 10 16 0.00 0.00
11:53 pm 23:53 Clear 80 26.7 64 17.8 58 58 NNW 6 9 29.84 1011 10 16 0.00 0.00

Powered by AerisWeather